Granada, Spain

3:10 PM CEST on September 21, 2017 (GMT +0200)
Granada

Weather History for LEGR - May, 2013

Change the Weather History Date:

Saturday, May 25, 2013

  Actual Average Record
Temperature  
Mean Temperature 66 °F -  
Max Temperature 81 °F 85 °F 98 °F (2017)
Min Temperature 52 °F 55 °F 45 °F (2014)
Cooling Degree Days 2    
Growing Degree Days 16 (Base 50)    
Moisture  
Dew Point 51 °F    
Average Humidity 56    
Maximum Humidity 94    
Minimum Humidity 22    
Precipitation  
Precipitation 0.00 in - - ()
Sea Level Pressure  
Sea Level Pressure 30.04 in    
Wind  
Wind Speed 4 mph ()    
Max Wind Speed 16 mph    
Max Gust Speed 24 mph    
Visibility 6.7 miles    
Events      
Averages and records for this station are not official NWS values.
T = Trace of Precipitation, MM = Missing Value Source: Averaged Metar Reports

Daily Weather History Graph

Daily Weather History Graph

Search for Another Location

Airport or City:

Trip Planner

Search our weather history database for the weather conditions in past years. The results will help you decide how hot, cold, wet, or windy it might be!

Date:

Astronomy

May. 25, 2013 Rise Set
Actual Time 6:59 AM CEST 9:24 PM CEST
Civil Twilight 6:29 AM CEST 9:54 PM CEST
Nautical Twilight 5:53 AM CEST 10:31 PM CEST
Astronomical Twilight 5:12 AM CEST 11:12 PM CEST
Moon 9:57 PM CEST (5/25) 7:12 AM CEST (5/25)
Length of Visible Light 15h 24m
Length of Day
14h 25m
Full, 100% of the Moon is Illuminated
May 25
Full
May 31
Last Quarter
Jun 8
New
Jun 16
First Quarter
Jun 23
Full

Hourly Weather History & Observations

Time (CEST) Temp. Dew Point Humidity Pressure Visibility Wind Dir Wind Speed Gust Speed Precip Events Conditions
12:00 AM 62.6 °F 53.6 °F 72% 30.06 in - SW 3.5 mph - N/A   Clear
12:30 AM 62.6 °F 53.6 °F 72% 30.06 in - SW 6.9 mph - N/A   Clear
1:00 AM 60.8 °F 53.6 °F 77% 30.06 in - SW 5.8 mph - N/A   Clear
1:30 AM 60.8 °F 53.6 °F 77% 30.06 in - WSW 3.5 mph - N/A   Clear
2:00 AM 59 °F 51 °F 67% 30.06 in 10 mi Calm Calm - -  
6:00 AM 51.8 °F 50.0 °F 94% 30.06 in - Variable 2.3 mph - N/A   Clear
6:30 AM 53.6 °F 50.0 °F 88% 30.06 in 6.2 mi Calm Calm - N/A   Partly Cloudy
7:00 AM 51.8 °F 50.0 °F 94% 30.06 in 5.6 mi Variable 2.3 mph - N/A   Partly Cloudy
7:30 AM 53.6 °F 50.0 °F 88% 30.06 in 5.6 mi Variable 1.2 mph - N/A   Partly Cloudy
8:00 AM 55 °F 49 °F 75% 30.07 in 5 mi Calm Calm - -   Mist
8:00 AM 55.4 °F 51.8 °F 88% 30.06 in 5.6 mi Calm Calm - N/A   Partly Cloudy
8:30 AM 57.2 °F 53.6 °F 88% 30.06 in 5.6 mi Calm Calm - N/A   Partly Cloudy
9:00 AM 59.0 °F 53.6 °F 82% 30.06 in 5.6 mi Calm Calm - N/A   Unknown
9:30 AM 59.0 °F 53.6 °F 82% 30.06 in - Variable 1.2 mph - N/A   Clear
10:00 AM 62.6 °F 53.6 °F 72% 30.09 in 6.2 mi Variable 1.2 mph - N/A   Partly Cloudy
10:30 AM 64.4 °F 55.4 °F 73% 30.09 in 6.2 mi Variable 1.2 mph - N/A   Partly Cloudy
11:00 AM 66.2 °F 55.4 °F 68% 30.06 in 6.2 mi Variable 1.2 mph - N/A   Partly Cloudy
11:30 AM 68.0 °F 53.6 °F 60% 30.06 in 6.2 mi Variable 2.3 mph - N/A   Partly Cloudy
12:00 PM 71.6 °F 55.4 °F 57% 30.06 in 6.2 mi Variable 2.3 mph - N/A   Partly Cloudy
12:30 PM 73.4 °F 51.8 °F 47% 30.06 in 6.2 mi Variable 2.3 mph - N/A   Partly Cloudy
1:00 PM 75.2 °F 50.0 °F 41% 30.06 in 6.2 mi Variable 2.3 mph - N/A   Partly Cloudy
1:30 PM 77.0 °F 48.2 °F 36% 30.06 in 6.2 mi Variable 2.3 mph - N/A   Partly Cloudy
2:00 PM 79 °F 47 °F 22% 29.96 in 16 mi WSW 2.3 mph - -   Scattered Clouds
2:00 PM 77.0 °F 46.4 °F 34% 30.04 in 6.2 mi Variable 2.3 mph - N/A   Partly Cloudy
2:30 PM 78.8 °F 46.4 °F 32% 30.04 in 6.2 mi West 9.2 mph - N/A   Partly Cloudy
3:00 PM 80.6 °F 44.6 °F 28% 30.04 in 6.2 mi WNW 8.1 mph - N/A   Partly Cloudy
3:30 PM 80.6 °F 46.4 °F 30% 30.04 in 6.2 mi West 10.4 mph - N/A   Partly Cloudy
4:00 PM 80.6 °F 46.4 °F 30% 30.01 in 6.2 mi West 12.7 mph 24.2 mph N/A   Partly Cloudy
4:30 PM 80.6 °F 46.4 °F 30% 30.01 in 6.2 mi West 15.0 mph - N/A   Partly Cloudy
5:00 PM 80.6 °F 48.2 °F 32% 30.01 in 6.2 mi West 16.1 mph - N/A   Partly Cloudy
5:30 PM 78.8 °F 48.2 °F 34% 30.01 in 6.2 mi West 13.8 mph - N/A   Partly Cloudy
6:00 PM 78.8 °F 50.0 °F 36% 30.01 in 6.2 mi West 13.8 mph - N/A   Partly Cloudy
6:30 PM 78.8 °F 50.0 °F 36% 30.01 in 6.2 mi WNW 12.7 mph - N/A   Partly Cloudy
7:00 PM 78.8 °F 50.0 °F 36% 30.01 in 6.2 mi West 13.8 mph - N/A   Partly Cloudy
7:30 PM 77.0 °F 51.8 °F 41% 30.01 in 6.2 mi WNW 10.4 mph - N/A   Partly Cloudy
8:00 PM 77 °F 49 °F 27% 29.92 in 16 mi WNW 10.4 mph - -   Scattered Clouds
8:00 PM 77.0 °F 51.8 °F 41% 30.01 in 6.2 mi WNW 9.2 mph - N/A   Partly Cloudy
8:30 PM 75.2 °F 51.8 °F 44% 30.01 in 6.2 mi NNW 6.9 mph - N/A   Partly Cloudy
9:00 PM 73.4 °F 53.6 °F 50% 30.04 in 6.2 mi North 6.9 mph - N/A   Partly Cloudy
9:30 PM 69.8 °F 53.6 °F 56% 30.04 in 6.2 mi Variable 2.3 mph - N/A   Partly Cloudy
10:00 PM 68.0 °F 53.6 °F 60% 30.04 in 6.2 mi Variable 2.3 mph - N/A   Partly Cloudy
10:30 PM 66.2 °F 53.6 °F 64% 30.04 in 6.2 mi WSW 4.6 mph - N/A   Partly Cloudy
11:00 PM 66.2 °F 53.6 °F 64% 30.04 in - SW 3.5 mph - N/A   Clear